Tracking 19212 objects as of 16-Jul-2018
HD Live streaming from Space Station
objects crossing your sky now

FENGYUN 1C DEB

Track FENGYUN 1C DEB now!
10-day predictions


NORAD ID: 30882
Int'l Code: 1999-025AXU
Perigee: 545.6 km
Apogee: 888.6 km
Inclination: 98.3 °
Period: 99.0 minutes
Semi major axis: 7088 km
RCS: 0.0116 m2 (small)
Launch date: May 10, 1999
Source: People's Republic of China (PRC)
Launch site: Taiyaun Space Center, China (TSC)

Note: This is SATELLITE DEBRIS
aabbcc
Your satellite tracking list
Your tracking list is empty




NASA's NSSDC Master Catalog

Two Line Element Set (TLE):
1 30882U 99025AXU 18196.37769099 +.00000412 +00000-0 +75064-4 0  9994
2 30882 098.2902 258.6559 0241935 258.0412 099.3572 14.54823862600946
Source of the keplerian elements: AFSPC